Time,TemperatureF,DewpointF,PressureIn,WindDirection,WindDirectionDegrees,WindSpeedMPH,WindSpeedGustMPH,Humidity,HourlyPrecipIn,Conditions,Clouds,dailyrainin,SoftwareType,DateUTC
2014-01-01 00:09:00,20.7,20.5,29.58,ESE,112,4.7,-999.0,99,-99.99,,,0.00,Acu-Link.com,2014-01-01 07:09:00,
2014-01-01 00:25:00,20.7,20.5,29.58,ESE,112,2.7,-999.0,99,-99.99,,,0.00,Acu-Link.com,2014-01-01 07:25:00,
2014-01-01 00:40:00,20.5,20.3,29.58,ESE,112,2.7,-999.0,99,-99.99,,,0.00,Acu-Link.com,2014-01-01 07:40:00,
2014-01-01 00:55:00,20.3,20.1,29.57,ESE,112,5.8,-999.0,99,-99.99,,,0.00,Acu-Link.com,2014-01-01 07:55:00,
2014-01-01 01:10:00,20.3,20.1,29.58,ESE,112,5.3,-999.0,99,-99.99,,,0.00,Acu-Link.com,2014-01-01 08:10:00,
2014-01-01 01:25:00,19.9,19.7,29.57,ESE,112,6.8,-999.0,99,-99.99,,,0.00,Acu-Link.com,2014-01-01 08:25:00,
2014-01-01 01:40:00,19.9,19.7,29.56,ESE,112,4.7,-999.0,99,-99.99,,,0.00,Acu-Link.com,2014-01-01 08:40:00,
2014-01-01 01:55:00,19.8,19.6,29.57,ESE,112,4.2,-999.0,99,-99.99,,,0.00,Acu-Link.com,2014-01-01 08:55:00,
2014-01-01 02:10:00,19.4,19.2,29.56,ESE,112,5.3,-999.0,99,-99.99,,,0.00,Acu-Link.com,2014-01-01 09:10:00,
2014-01-01 02:25:00,19.2,19.0,29.57,ESE,112,4.2,-999.0,99,-99.99,,,0.00,Acu-Link.com,2014-01-01 09:25:00,
2014-01-01 02:41:00,19.0,18.8,29.58,ESE,112,6.8,-999.0,99,-99.99,,,0.00,Acu-Link.com,2014-01-01 09:41:00,
2014-01-01 02:56:00,18.9,18.7,29.58,ESE,112,7.3,-999.0,99,-99.99,,,0.00,Acu-Link.com,2014-01-01 09:56:00,
2014-01-01 03:11:00,18.5,18.3,29.58,WNW,292,5.8,-999.0,99,-99.99,,,0.00,Acu-Link.com,2014-01-01 10:11:00,
2014-01-01 03:26:00,18.3,18.1,29.58,ESE,112,3.7,-999.0,99,-99.99,,,0.00,Acu-Link.com,2014-01-01 10:26:00,
2014-01-01 03:41:00,18.1,17.9,29.58,WNW,292,4.7,-999.0,99,-99.99,,,0.00,Acu-Link.com,2014-01-01 10:41:00,
2014-01-01 03:56:00,18.0,17.8,29.59,ENE,67,4.7,-999.0,99,-99.99,,,0.00,Acu-Link.com,2014-01-01 10:56:00,
2014-01-01 04:11:00,17.8,17.6,29.60,SE,135,6.8,-999.0,99,-99.99,,,0.00,Acu-Link.com,2014-01-01 11:11:00,
2014-01-01 04:26:00,17.8,17.6,29.60,ENE,67,6.3,-999.0,99,-99.99,,,0.00,Acu-Link.com,2014-01-01 11:26:00,
2014-01-01 04:41:00,17.4,17.2,29.61,ESE,112,5.3,-999.0,99,-99.99,,,0.00,Acu-Link.com,2014-01-01 11:41:00,
2014-01-01 04:57:00,17.2,17.0,29.61,ESE,112,5.3,-999.0,99,-99.99,,,0.00,Acu-Link.com,2014-01-01 11:57:00,
2014-01-01 05:12:00,16.9,16.7,29.62,ESE,112,0.0,-999.0,99,-99.99,,,0.00,Acu-Link.com,2014-01-01 12:12:00,
2014-01-01 05:27:00,16.7,16.5,29.63,ESE,112,0.0,-999.0,99,-99.99,,,0.00,Acu-Link.com,2014-01-01 12:27:00,
2014-01-01 05:42:00,16.7,16.5,29.64,ESE,112,0.0,-999.0,99,-99.99,,,0.00,Acu-Link.com,2014-01-01 12:42:00,
2014-01-01 05:57:00,16.5,16.3,29.65,ESE,112,0.0,-999.0,99,-99.99,,,0.00,Acu-Link.com,2014-01-01 12:57:00,
2014-01-01 06:12:00,16.3,16.1,29.65,ESE,112,0.0,-999.0,99,-99.99,,,0.00,Acu-Link.com,2014-01-01 13:12:00,
2014-01-01 06:27:00,16.3,16.1,29.66,ESE,112,0.0,-999.0,99,-99.99,,,0.00,Acu-Link.com,2014-01-01 13:27:00,
2014-01-01 06:42:00,16.0,15.5,29.67,ESE,112,0.0,-999.0,98,-99.99,,,0.00,Acu-Link.com,2014-01-01 13:42:00,
2014-01-01 06:57:00,15.8,15.3,29.66,ESE,112,0.0,-999.0,98,-99.99,,,0.00,Acu-Link.com,2014-01-01 13:57:00,
2014-01-01 07:13:00,15.6,15.1,29.67,ESE,112,0.0,-999.0,98,-99.99,,,0.00,Acu-Link.com,2014-01-01 14:13:00,
2014-01-01 07:28:00,15.4,14.9,29.69,ESE,112,0.0,-999.0,98,-99.99,,,0.00,Acu-Link.com,2014-01-01 14:28:00,
2014-01-01 07:43:00,15.1,14.6,29.69,WNW,292,0.0,-999.0,98,-99.99,,,0.00,Acu-Link.com,2014-01-01 14:43:00,
2014-01-01 07:58:00,15.3,14.8,29.69,East,90,0.0,-999.0,98,-99.99,,,0.00,Acu-Link.com,2014-01-01 14:58:00,
2014-01-01 08:13:00,15.4,14.9,29.71,East,90,0.0,-999.0,98,-99.99,,,0.00,Acu-Link.com,2014-01-01 15:13:00,
2014-01-01 08:28:00,15.4,14.9,29.71,East,90,0.0,-999.0,98,-99.99,,,0.00,Acu-Link.com,2014-01-01 15:28:00,
2014-01-01 08:44:00,15.8,15.3,29.71,East,90,0.0,-999.0,98,-99.99,,,0.00,Acu-Link.com,2014-01-01 15:44:00,
2014-01-01 08:59:00,16.5,16.0,29.71,East,90,0.0,-999.0,98,-99.99,,,0.00,Acu-Link.com,2014-01-01 15:59:00,
2014-01-01 09:14:00,15.3,14.6,29.74,East,90,0.0,-999.0,97,-99.99,,,0.00,Acu-Link.com,2014-01-01 16:14:00,
2014-01-01 09:29:00,16.0,15.3,29.74,East,90,0.0,-999.0,97,-99.99,,,0.00,Acu-Link.com,2014-01-01 16:29:00,
2014-01-01 09:44:00,16.5,15.8,29.74,East,90,0.0,-999.0,97,-99.99,,,0.00,Acu-Link.com,2014-01-01 16:44:00,
2014-01-01 09:59:00,17.6,16.7,29.75,East,90,0.0,-999.0,96,-99.99,,,0.00,Acu-Link.com,2014-01-01 16:59:00,
2014-01-01 10:14:00,17.6,16.7,29.76,East,90,0.0,-999.0,96,-99.99,,,0.00,Acu-Link.com,2014-01-01 17:14:00,
2014-01-01 10:29:00,17.6,16.7,29.75,East,90,0.0,-999.0,96,-99.99,,,0.00,Acu-Link.com,2014-01-01 17:29:00,
2014-01-01 10:44:00,18.0,17.1,29.76,East,90,0.0,-999.0,96,-99.99,,,0.00,Acu-Link.com,2014-01-01 17:44:00,
2014-01-01 11:00:00,18.9,17.7,29.76,East,90,0.0,-999.0,95,-99.99,,,0.00,Acu-Link.com,2014-01-01 18:00:00,
2014-01-01 11:15:00,19.6,18.2,29.76,East,90,0.0,-999.0,94,-99.99,,,0.00,Acu-Link.com,2014-01-01 18:15:00,
2014-01-01 11:30:00,19.4,18.0,29.76,East,90,0.0,-999.0,94,-99.99,,,0.00,Acu-Link.com,2014-01-01 18:30:00,
2014-01-01 11:45:00,19.6,18.4,29.76,East,90,0.0,-999.0,95,-99.99,,,0.00,Acu-Link.com,2014-01-01 18:45:00,
2014-01-01 12:00:00,20.7,19.0,29.75,East,90,0.0,-999.0,93,-99.99,,,0.00,Acu-Link.com,2014-01-01 19:00:00,
2014-01-01 12:15:00,19.9,18.5,29.75,East,90,0.0,-999.0,94,-99.99,,,0.00,Acu-Link.com,2014-01-01 19:15:00,
2014-01-01 12:30:00,19.8,18.4,29.75,East,90,0.0,-999.0,94,-99.99,,,0.00,Acu-Link.com,2014-01-01 19:30:00,
2014-01-01 12:46:00,19.6,17.9,29.75,East,90,0.0,-999.0,93,-99.99,,,0.00,Acu-Link.com,2014-01-01 19:46:00,
2014-01-01 13:01:00,18.9,16.5,29.75,East,90,0.0,-999.0,90,-99.99,,,0.00,Acu-Link.com,2014-01-01 20:01:00,
2014-01-01 13:16:00,18.3,17.1,29.75,East,90,0.0,-999.0,95,-99.99,,,0.00,Acu-Link.com,2014-01-01 20:16:00,
2014-01-01 13:31:00,17.8,16.4,29.75,East,90,0.0,-999.0,94,-99.99,,,0.00,Acu-Link.com,2014-01-01 20:31:00,
2014-01-01 13:46:00,18.1,16.7,29.75,East,90,0.0,-999.0,94,-99.99,,,0.00,Acu-Link.com,2014-01-01 20:46:00,
2014-01-01 14:01:00,17.4,16.0,29.76,East,90,0.0,-999.0,94,-99.99,,,0.00,Acu-Link.com,2014-01-01 21:01:00,
2014-01-01 14:16:00,17.2,15.8,29.77,East,90,0.0,-999.0,94,-99.99,,,0.00,Acu-Link.com,2014-01-01 21:16:00,
2014-01-01 14:31:00,17.6,16.4,29.78,East,90,0.0,-999.0,95,-99.99,,,0.00,Acu-Link.com,2014-01-01 21:31:00,
2014-01-01 14:46:00,17.2,15.5,29.78,East,90,0.0,-999.0,93,-99.99,,,0.00,Acu-Link.com,2014-01-01 21:46:00,
2014-01-01 15:02:00,17.1,15.2,29.79,East,90,0.0,-999.0,92,-99.99,,,0.00,Acu-Link.com,2014-01-01 22:02:00,